Location: Newark
(52.3500°N, 175.9667°E)
Time: 10:00:36
(UTC+00:00)

N. Korean satellite - Pass Details

Date: 19 November 2019
Orbit: 456 x 506 km, 97.2° (Epoch: 05 December)

Event Time Altitude Azimuth Distance (km) Brightness Sun altitude
Rises 17:06:30 0° 28° (NNE) 2,622 10.6 -23.7°
Reaches altitude 10° 17:09:23 10° 52° (NE) 1,725 10.0 -23.2°
Maximum altitude 17:11:34 15° 89° (E) 1,432 9.9 -22.9°
Drops below altitude 10° 17:13:44 10° 125° (SE) 1,705 10.1 -22.6°
Sets 17:16:32 0° 149° (SSE) 2,572 10.7 -22.1°
